Location: ????????
(54.6123°N, 39.2099°E)
Time: 03:36:02
(UTC+00:00)

Cosmos 2322 - Pass Details

Date: 19 May 2025
Orbit: 839 x 854 km, 71.0° (Epoch: 15 June)

Event Time Altitude Azimuth Distance (km) Brightness Sun altitude
Rises 22:12:39 0° 326° (NW) 3,417 7.5 -14.6°
Reaches altitude 10° 22:15:06 10° 325° (NW) 2,480 6.7 -14.5°
Maximum altitude 22:20:47 76° 241° (WSW) 880 3.7 -14.3°
Enters shadow 22:26:04 12° 157° (SSE) 2,326 5.5 -14.1°
